Location: McDonald Observatory
(30.6717°N, 104.0221°W)
Time: 05:27:09
(UTC-05:00)

Daily predictions for brighter satellites

Satellite Brightness Start Highest point End
(mag) Time Altitude Azimuth Time Altitude Azimuth Time Altitude Azimuth
H-2A R/B 3.8 00:09:07 32° N 00:09:07 32° N 00:11:35 10° NNW
Nadezhda 3 Rocket 4.3 00:12:40 63° NNE 00:12:40 63° NNE 00:17:57 10° N
Cosmos 1697 Rocket 3.4 00:12:50 10° NNW 00:17:01 49° NW 00:17:01 49° NW
SL-16 R/B 4.0 00:22:10 10° N 00:25:26 22° NE 00:25:26 22° NE
Terra 3.5 00:30:03 30° NW 00:30:03 30° NW 00:32:35 10° NNW
Lacrosse 5 4.1 00:56:51 20° NNE 00:56:51 20° NNE 00:58:29 10° NNE
USA 267 3.6 00:49:51 10° NE 00:55:15 59° N 00:55:15 59° N
Cosmos 2360 Rocket 4.3 01:01:47 10° NNE 01:04:36 19° NE 01:04:36 19° NE
NOSS 3-1 (C) 4.4 00:58:51 10° NNW 01:06:22 56° NE 01:06:22 56° NE
Cosmos 1980 Rocket 3.9 01:01:49 10° NW 01:04:37 27° NW 01:04:37 27° NW
Lacrosse 5 rocket 4.4 01:14:28 10° N 01:15:49 16° N 01:15:49 16° N
Cosmos 2322 Rocket 3.7 01:12:53 10° NNW 01:16:01 34° N 01:16:01 34° N
CZ-2C R/B 4.3 01:31:42 10° N 01:34:42 32° N 01:34:42 32° N
NOSS 3-1 (A) 4.3 01:32:10 10° NNW 01:39:16 65° NNE 01:39:16 65° NNE
SL-16 R/B 4.4 02:05:43 10° NW 02:07:17 18° NW 02:07:17 18° NW
Cosmos 2227 Rocket 4.3 02:22:51 19° ENE 02:22:51 19° ENE 02:24:49 10° NE
Cosmos 2360 Rocket 4.2 02:44:41 10° NW 02:46:21 19° NW 02:46:21 19° NW
COSMOS 2428 4.1 02:48:45 10° NNW 02:51:54 34° NNW 02:51:54 34° NNW
USA 234 3.6 03:08:35 60° ENE 03:09:08 62° NE 03:15:35 10° NW
ADEOS Rocket 4.4 03:12:15 10° NNE 03:19:15 38° E 03:20:35 36° ESE
Cosmos 2297 Rocket 2.9 03:27:30 50° NNE 03:27:30 50° NNE 03:31:37 10° NNE
Cosmos 2333 Rocket 3.0 03:21:05 10° NNW 03:25:16 48° N 03:25:16 48° N
ATLAS 2AS CENTAUR R/B 2.8 03:23:04 10° NNW 03:31:00 85° ENE 03:31:13 83° ESE
Cosmos 2219 Rocket 3.2 03:27:35 10° NNW 03:31:02 39° NNW 03:31:02 39° NNW
Cosmos 1980 4.3 03:29:01 10° NNW 03:33:55 55° NE 03:33:55 55° NE
SL-16 R/B 3.7 03:43:23 24° ESE 03:46:15 37° ENE 03:51:50 10° N
NPP 4.1 03:42:37 10° N 03:46:52 56° N 03:46:52 56° N
Cosmos 2237 Rocket 2.4 03:47:34 10° NNW 03:52:19 63° N 03:52:19 63° N
SL-16 R/B 3.8 03:49:48 10° N 03:54:50 31° ENE 03:59:21 12° ESE
ADEOS 4.2 03:54:55 10° NNE 03:59:53 48° E 03:59:53 48° E
CZ-3B DEB 4.3 03:54:53 48° SW 04:00:04 87° NW 04:14:53 10° NE
Cosmos 2227 Rocket 3.4 04:04:40 30° NW 04:04:40 30° NW 04:08:59 10° N
Cosmos 1570 Rocket 4.4 03:58:59 10° N 04:04:17 59° ENE 04:04:43 57° E
Resurs 1-4 Rocket 2.3 03:59:31 10° NNE 04:04:44 62° E 04:04:44 62° E
ATLAS 3B CENTAUR R/B 3.6 03:45:21 10° W 04:06:04 78° S 04:12:53 10° E
ARIANE 5 R/B 2.8 04:03:58 10° NNE 04:08:48 60° E 04:08:48 60° E
Cosmos 2034 Rocket 4.4 04:03:54 10° N 04:10:12 61° E 04:12:20 41° SE
UNK 4.3 04:12:54 53° E 04:13:01 54° ENE 04:17:30 10° N
ERS-1 4.5 04:13:17 10° N 04:18:15 81° NNW 04:18:15 81° NNW
OAO 3 Copernicus 4.4 04:19:18 70° E 04:19:18 70° E 04:23:51 10° ESE
Cosmos 1707 Rocket 4.2 04:14:31 10° N 04:18:44 51° ENE 04:18:44 51° ENE
COBE Rocket 4.0 04:15:07 10° N 04:19:08 67° N 04:19:08 67° N
Tsikada Rocket 4.0 04:21:32 55° SSE 04:23:02 79° E 04:29:27 10° N
OAO 3 Rocket 3.8 04:25:10 49° ESE 04:25:10 49° ESE 04:29:11 10° ENE
CZ-3 R/B 4.4 03:19:11 10° W 04:26:07 84° S 04:39:10 10° E
CZ-2D R/B 1.9 04:21:17 10° N 04:26:32 81° WNW 04:26:43 79° WSW
Cosmos 1666 Rocket 3.8 04:28:05 65° N 04:28:05 65° N 04:31:55 10° N
Cosmos 1455 3.8 04:29:11 10° NNW 04:31:12 29° NNW 04:31:12 29° NNW
GPS 2-04 Rocket1 3.6 04:36:03 43° ESE 04:36:03 43° ESE 04:38:58 10° ESE
Lacrosse 4 Rocket 2.3 04:39:11 39° NW 04:39:11 39° NW 04:42:26 10° N
Cosmos 1513 Rocket 4.5 04:32:58 10° NNW 04:39:16 64° W 04:40:37 52° SW
Cosmos 1891 Rocket 4.5 04:36:13 10° NNW 04:42:24 62° W 04:43:42 51° SW
GOES 2 Rocket 4.5 04:38:24 32° W 04:43:11 78° S 04:50:31 10° E
Cosmos 468 Rocket 4.2 04:46:33 10° N 04:51:42 67° ENE 04:56:27 12° SSE
Cosmos 2208 Rocket 4.2 04:49:18 10° NNW 04:54:13 47° W 04:54:13 47° W
Cosmos 1869 3.5 04:57:08 10° NNW 05:00:43 52° WNW 05:00:43 52° WNW
IRS-1D 4.4 04:58:24 10° N 05:03:07 33° WNW 05:03:55 31° W
ADEOS Rocket 4.2 04:57:38 10° N 05:04:29 38° WNW 05:07:32 28° WSW
CZ-2D R/B 3.5 05:06:28 10° N 05:10:29 59° WNW 05:11:17 48° WSW
Cosmos 2297 Rocket 4.4 05:10:06 10° WNW 05:10:40 10° NW 05:11:14 10° NW
BREEZE-M R/B 4.2 05:06:58 28° WSW 05:10:40 54° NW 05:14:52 10° NE
Sich 1 4.3 05:11:32 25° WNW 05:11:32 25° WNW 05:14:52 10° NNW
Cosmos 1633 Rocket 4.0 05:11:34 30° WNW 05:11:34 30° WNW 05:15:20 10° NNW
Cosmos 1503 Rocket 4.4 05:08:27 23° S 05:11:42 60° ESE 05:16:53 10° NNE
Cosmos 1470 Rocket 3.5 05:11:03 47° SW 05:12:07 66° W 05:16:24 10° N
Cosmos 1763 Rocket 4.2 05:07:10 10° N 05:12:16 53° ENE 05:17:16 10° SSE
Okean O Rocket 3.2 05:08:36 10° NE 05:12:27 30° E 05:16:16 10° SSE
GP-B 4.2 05:10:44 10° NNE 05:14:57 42° E 05:19:09 10° SSE
Cosmos 1634 Rocket 4.0 05:09:34 10° N 05:15:46 80° E 05:21:55 10° S
MOS 1-B 4.4 05:10:28 10° NNE 05:16:16 81° ESE 05:20:25 20° S
Cosmos 1814 Rocket 4.1 05:11:01 10° NNW 05:16:23 82° ENE 05:21:44 10° SSE
Cosmos 1603 4.4 05:12:19 10° N 05:17:56 57° ENE 05:23:28 10° SSE
CZ-4B R/B 4.2 05:15:03 10° NNE 05:19:04 38° E 05:22:43 11° SSE
NOSS 3-4 (A) 3.8 05:15:24 10° NNW 05:22:38 84° WSW 05:30:19 10° SSE
NOSS 3-4 (C) 3.8 05:15:30 10° NNW 05:22:45 85° WSW 05:30:25 10° SSE
PSLV R/B 4.3 05:20:24 10° NNE 05:24:18 56° E 05:27:03 17° S
Abrixas rocket 2.8 05:24:38 37° S 05:25:25 46° SE 05:28:36 10° ENE
UNKNOWN OBJECT B 3.9 05:24:19 10° NNW 05:27:42 27° WNW 05:28:17 26° W
Cosmos 332 Rocket 3.7 05:24:02 10° NNW 05:28:52 72° WSW 05:33:42 10° S
SL-16 R/B 3.4 05:28:28 24° WSW 05:29:50 26° W 05:34:55 10° NW
MOS 1 Rocket 4.1 05:26:52 10° N 05:31:48 42° WNW 05:34:34 24° SW
ATLAS 5 CENTAUR R/B 1.7 05:31:07 28° SW 05:33:28 69° WNW 05:38:21 10° NNE
SEDSat Delta rocket 4.4 05:30:23 24° SW 05:34:02 50° SSE 05:40:33 10° E
Cosmos 1315 Rocket 3.1 05:31:59 14° S 05:35:26 66° E 05:39:26 10° NNE
Cosmos 1354 Rocket 4.0 05:33:32 21° SSW 05:37:09 74° WNW 05:42:26 10° NNE
SL-16 R/B 3.1 05:34:03 10° NW 05:38:44 27° WSW 05:41:04 20° SW
SL-24 R/B 4.3 05:36:11 10° N 05:39:40 39° WNW 05:41:06 26° WSW
CZ-4B R/B 3.7 05:37:29 10° NNE 05:42:46 60° ESE 05:48:07 10° S
Resurs 1-4 Rocket 4.0 05:41:41 10° NW 05:44:02 13° WNW 05:45:49 11° W
PSLV R/B 3.8 05:41:02 10° NNE 05:45:13 65° ESE 05:49:22 10° S
H-2A R/B 4.5 05:29:35 17° SW 05:47:51 40° SSE 05:53:39 10° E
Atlas Centaur 2 4.1 05:42:05 14° SSW 05:48:16 34° SSE 05:55:38 10° E
ADEOS II 2.1 05:45:36 10° N 05:50:52 82° WNW 05:56:07 10° SSW
Meteor 2-3 Rocket 3.8 05:49:26 10° SSW 05:55:03 66° W 06:00:45 10° N
Cosmos 2084 4.0 05:53:26 10° SSW 05:57:24 49° ESE 06:01:11 10° NE
CZ-4B DEB 4.2 05:55:03 10° NNE 06:00:31 87° WNW 06:06:00 10° SSW
Cosmos 1892 3.3 05:59:58 14° SW 06:02:48 37° W 06:06:22 10° NNW
IRS-1C Rocket 4.1 05:59:23 10° N 06:04:40 81° WNW 06:09:55 10° SSW
Cosmos 2221 Rocket 4.2 06:00:15 10° N 06:04:45 62° E 06:09:12 10° SSE
Cosmos 1943 3.6 05:59:30 10° NNW 06:05:07 70° ENE 06:10:43 10° SSE
Cosmos 1867 4.1 06:01:22 14° SW 06:05:43 44° WNW 06:10:56 10° NNE
Cosmos 2263 Rocket 2.4 06:02:03 12° SW 06:07:05 53° WNW 06:12:31 10° N
OAO 3 Rocket 3.6 06:03:01 10° W 06:07:55 61° N 06:12:48 10° ENE
Cosmos 968 Rocket 3.8 06:08:26 10° S 06:13:31 70° ESE 06:18:40 10° NNE
GPS 2-04 Rocket1 3.9 06:10:58 10° W 06:14:24 25° SSW 06:17:54 10° SSE
Meteor 2-10 Rocket 4.3 06:13:58 10° NNW 06:18:17 30° W 06:22:40 10° SSW
Cosmos 1606 4.2 06:15:04 10° N 06:18:48 41° E 06:22:30 10° SSE
Meteosat 1 Rocket2 2.8 06:17:59 10° W 06:22:08 62° S 06:25:42 10° E
Meteor 1-31 Rocket 3.1 06:19:19 10° NNE 06:23:14 69° E 06:27:05 10° S
Cosmos 841 Rocket 4.1 06:19:53 10° NW 06:24:37 35° W 06:29:20 10° SSW
